TimeCST,TemperatureF,Dew PointF,Humidity,Sea Level PressureIn,VisibilityMPH,Wind Direction,Wind SpeedMPH,Gust SpeedMPH,PrecipitationIn,Events,Conditions,WindDirDegrees,DateUTC
12:53 AM,46.9,37.0,68,29.74,10.0,ENE,6.9,-,N/A,,Mostly Cloudy,70,2013-02-25 06:53:00
1:53 AM,46.9,37.0,68,29.73,10.0,ENE,6.9,-,N/A,,Overcast,70,2013-02-25 07:53:00
2:53 AM,48.0,37.9,68,29.68,10.0,ENE,9.2,-,N/A,,Overcast,70,2013-02-25 08:53:00
3:53 AM,48.9,37.9,66,29.67,10.0,ENE,6.9,-,N/A,,Overcast,70,2013-02-25 09:53:00
4:41 AM,48.2,39.2,71,29.67,10.0,ENE,8.1,-,N/A,,Overcast,60,2013-02-25 10:41:00
4:53 AM,50.0,39.0,66,29.66,10.0,ENE,9.2,-,N/A,,Overcast,60,2013-02-25 10:53:00
5:53 AM,50.0,39.0,66,29.69,10.0,NE,9.2,-,N/A,,Overcast,50,2013-02-25 11:53:00
6:53 AM,50.0,39.0,66,29.70,10.0,ENE,5.8,-,N/A,,Overcast,70,2013-02-25 12:53:00
7:53 AM,48.9,39.0,69,29.67,10.0,East,10.4,-,0.00,,Overcast,80,2013-02-25 13:53:00
8:53 AM,50.0,41.0,71,29.66,10.0,ENE,8.1,-,0.01,,Overcast,70,2013-02-25 14:53:00
9:31 AM,50.0,42.8,76,29.62,10.0,East,12.7,20.7,N/A,,Overcast,80,2013-02-25 15:31:00
9:53 AM,51.1,43.0,74,29.60,10.0,East,8.1,21.9,N/A,,Overcast,80,2013-02-25 15:53:00
10:53 AM,53.1,46.0,77,29.57,10.0,East,11.5,17.3,N/A,,Overcast,100,2013-02-25 16:53:00
11:53 AM,54.0,48.0,80,29.51,10.0,East,9.2,-,N/A,,Overcast,100,2013-02-25 17:53:00
12:53 PM,55.9,50.0,80,29.49,10.0,West,11.5,-,N/A,,Overcast,270,2013-02-25 18:53:00
1:20 PM,53.6,51.8,94,29.46,2.0,North,3.5,-,0.04,Rain,Light Rain,10,2013-02-25 19:20:00
1:29 PM,53.6,51.8,94,29.45,5.0,NE,3.5,-,0.04,Rain,Light Rain,40,2013-02-25 19:29:00
1:45 PM,53.6,51.8,94,29.44,1.8,NE,4.6,-,0.04,Rain,Light Rain,50,2013-02-25 19:45:00
1:53 PM,53.1,52.0,96,29.44,1.2,Calm,Calm,-,0.04,Rain,Light Rain,0,2013-02-25 19:53:00
1:55 PM,53.6,51.8,94,29.44,1.5,Calm,Calm,-,0.00,Rain,Light Rain,0,2013-02-25 19:55:00
2:07 PM,53.6,51.8,94,29.45,1.0,ENE,3.5,-,0.01,Rain,Light Rain,70,2013-02-25 20:07:00
2:19 PM,53.6,53.6,100,29.43,2.0,North,3.5,-,0.02,Rain,Light Rain,360,2013-02-25 20:19:00
2:22 PM,53.6,53.6,100,29.44,3.0,North,4.6,-,0.02,,Overcast,10,2013-02-25 20:22:00
2:43 PM,53.6,53.6,100,29.42,4.0,North,6.9,-,0.02,,Overcast,360,2013-02-25 20:43:00
2:53 PM,53.1,52.0,96,29.41,4.0,NNE,8.1,-,0.02,,Overcast,20,2013-02-25 20:53:00
3:53 PM,53.1,52.0,96,29.40,6.0,ENE,8.1,-,N/A,,Overcast,60,2013-02-25 21:53:00
4:30 PM,53.6,51.8,94,29.42,2.0,West,12.7,17.3,0.03,Rain,Light Rain,280,2013-02-25 22:30:00
4:39 PM,53.6,51.8,94,29.43,5.0,NW,6.9,18.4,0.03,Rain,Light Rain,310,2013-02-25 22:39:00
4:51 PM,53.6,51.8,94,29.42,7.0,NNW,4.6,-,0.04,,Overcast,340,2013-02-25 22:51:00
4:53 PM,54.0,53.1,97,29.42,7.0,NW,4.6,-,0.04,,Overcast,320,2013-02-25 22:53:00
5:53 PM,53.1,52.0,96,29.44,7.0,NW,3.5,-,N/A,,Scattered Clouds,320,2013-02-25 23:53:00
6:53 PM,48.9,48.0,97,29.44,2.5,Calm,Calm,-,N/A,,Clear,0,2013-02-26 00:53:00
6:56 PM,46.4,46.4,100,29.44,1.2,Calm,Calm,-,N/A,,Clear,0,2013-02-26 00:56:00
7:05 PM,48.2,48.2,100,29.44,0.8,Calm,Calm,-,N/A,,Clear,0,2013-02-26 01:05:00
7:15 PM,46.4,46.4,100,29.44,1.0,Calm,Calm,-,N/A,,Scattered Clouds,0,2013-02-26 01:15:00
7:23 PM,46.4,46.4,100,29.44,1.2,Calm,Calm,-,N/A,,Mostly Cloudy,0,2013-02-26 01:23:00
7:51 PM,50.0,50.0,100,29.44,0.8,Calm,Calm,-,N/A,,Overcast,0,2013-02-26 01:51:00
7:53 PM,50.0,50.0,100,29.44,0.8,Calm,Calm,-,N/A,,Overcast,0,2013-02-26 01:53:00
8:01 PM,48.2,48.2,100,29.44,1.5,West,3.5,-,N/A,,Overcast,260,2013-02-26 02:01:00
8:10 PM,50.0,50.0,100,29.44,3.0,Calm,Calm,-,N/A,,Overcast,0,2013-02-26 02:10:00
8:19 PM,48.2,48.2,100,29.44,2.5,West,3.5,-,N/A,,Mostly Cloudy,270,2013-02-26 02:19:00
8:31 PM,48.2,48.2,100,29.44,1.8,Calm,Calm,-,N/A,,Mostly Cloudy,0,2013-02-26 02:31:00
8:53 PM,50.0,50.0,100,29.44,1.8,Calm,Calm,-,N/A,,Overcast,0,2013-02-26 02:53:00
9:00 PM,48.2,48.2,100,29.45,2.0,SW,3.5,-,N/A,,Overcast,230,2013-02-26 03:00:00
9:14 PM,50.0,46.4,87,29.45,8.0,West,12.7,-,0.00,Rain,Light Rain,260,2013-02-26 03:14:00
9:53 PM,48.0,34.0,58,29.47,10.0,WSW,16.1,-,0.00,Thunderstorm,Overcast,240,2013-02-26 03:53:00
10:00 PM,48.2,33.8,58,29.47,10.0,WSW,18.4,24.2,N/A,,Overcast,240,2013-02-26 04:00:00
10:53 PM,46.9,32.0,56,29.48,10.0,WSW,19.6,33.4,N/A,,Mostly Cloudy,250,2013-02-26 04:53:00
11:53 PM,45.0,34.0,65,29.49,10.0,WSW,17.3,24.2,N/A,,Partly Cloudy,240,2013-02-26 05:53:00